^^
Saratoga-Weather Station Historical Data
Daily Summary for August 12, 2020 Units:  Metric    English   Both
Daily Weekly Monthly Yearly Custom
  High: Low: Average:
Temperature: 16.7 °C 12.2 °C 14.1 °C
Dew Point: 10.7 °C 8.4 °C 9.2 °C
Humidity: 79% 62% 72%
Wind Speed: 6.4km/h 0km/h 1.6km/h
Wind Gust: 12.9km/h - -
Wind- - SSW
Pressure: 1025.1 hPa 1024.0 hPa -
Precipitation: 0.0 mm    
Historical Graphs
 
 
Tabular Data for August 12, 2020
Time Temperature Dew Point Pressure Wind Wind Speed Wind Gust Humidity Rainfall Rate (Hourly) solar
00:00 16.7 °C 9.4 °C 1024.0 hPa SW 3.2 km/h 4.8 km/h 62% 0.0 mm 0 W/m2
00:05 16.6 °C 9.5 °C 1024.0 hPa WNW 4.7 km/h 4.8 km/h 63% 0.0 mm 0 W/m2
00:10 16.5 °C 9.4 °C 1024.4 hPa Calm   4.8 km/h 63% 0.0 mm 0 W/m2
00:15 16.4 °C 9.3 °C 1024.4 hPa WNW 3.2 km/h 11.3 km/h 63% 0.0 mm 0 W/m2
00:20 16.3 °C 9.5 °C 1024.4 hPa NW 3.2 km/h 4.8 km/h 64% 0.0 mm 0 W/m2
00:25 16.2 °C 9.4 °C 1024.4 hPa West 4.7 km/h 11.3 km/h 64% 0.0 mm 0 W/m2
00:30 16.2 °C 9.6 °C 1024.4 hPa NW 4.7 km/h 4.8 km/h 65% 0.0 mm 0 W/m2
00:35 16.2 °C 9.6 °C 1024.4 hPa NW 1.4 km/h 6.4 km/h 65% 0.0 mm 0 W/m2
00:40 16.1 °C 9.5 °C 1024.4 hPa WSW 4.7 km/h 6.4 km/h 65% 0.0 mm 0 W/m2
00:45 16.1 °C 9.5 °C 1024.4 hPa Calm   4.8 km/h 65% 0.0 mm 0 W/m2
00:50 15.9 °C 9.6 °C 1024.4 hPa WNW 6.4 km/h 8 km/h 66% 0.0 mm 0 W/m2
00:55 15.9 °C 9.6 °C 1024.4 hPa WNW 6.4 km/h 6.4 km/h 66% 0.0 mm 0 W/m2
01:00 15.9 °C 9.6 °C 1024.4 hPa West 1.4 km/h 6.4 km/h 66% 0.0 mm 0 W/m2
01:05 15.8 °C 9.5 °C 1024.4 hPa Calm   6.4 km/h 66% 0.0 mm 0 W/m2
01:10 15.8 °C 9.5 °C 1024.4 hPa NNW 1.4 km/h 4.8 km/h 66% 0.0 mm 0 W/m2
01:15 15.8 °C 9.7 °C 1024.4 hPa West 1.4 km/h 3.2 km/h 67% 0.0 mm 0 W/m2
01:20 15.7 °C 9.6 °C 1024.4 hPa WNW 4.7 km/h 12.9 km/h 67% 0.0 mm 0 W/m2
01:25 15.6 °C 9.5 °C 1024.4 hPa Calm   3.2 km/h 67% 0.0 mm 0 W/m2
01:30 15.5 °C 9.6 °C 1024.4 hPa NE 1.4 km/h 12.9 km/h 68% 0.0 mm 0 W/m2
01:35 15.4 °C 9.5 °C 1024.4 hPa NNW 4.7 km/h 6.4 km/h 68% 0.0 mm 0 W/m2
01:40 15.4 °C 9.5 °C 1024.4 hPa Calm   1.6 km/h 68% 0.0 mm 0 W/m2
01:45 15.3 °C 9.4 °C 1024.4 hPa Calm   4.8 km/h 68% 0.0 mm 0 W/m2
01:50 15.2 °C 9.5 °C 1024.4 hPa Calm   6.4 km/h 69% 0.0 mm 0 W/m2
01:55 15.1 °C 9.5 °C 1024.4 hPa Calm   1.6 km/h 69% 0.0 mm 0 W/m2
02:00 15 °C 9.4 °C 1024.4 hPa North 1.4 km/h 3.2 km/h 69% 0.0 mm 0 W/m2
02:05 15 °C 9.4 °C 1024.4 hPa Calm   6.4 km/h 69% 0.0 mm 0 W/m2
02:10 14.9 °C 9.3 °C 1024.4 hPa Calm   1.6 km/h 69% 0.0 mm 0 W/m2
02:15 14.8 °C 9.2 °C 1024.4 hPa East 1.4 km/h 4.8 km/h 69% 0.0 mm 0 W/m2
02:20 14.8 °C 9.2 °C 1024.4 hPa East 1.4 km/h 3.2 km/h 69% 0.0 mm 0 W/m2
02:25 14.8 °C 9.4 °C 1024.4 hPa NNW 3.2 km/h 4.8 km/h 70% 0.0 mm 0 W/m2
02:30 14.7 °C 9.3 °C 1024.4 hPa Calm   1.6 km/h 70% 0.0 mm 0 W/m2
02:35 14.5 °C 9.3 °C 1024.4 hPa SSE 3.2 km/h 4.8 km/h 71% 0.0 mm 0 W/m2
02:40 14.4 °C 9.2 °C 1024.4 hPa SSW 3.2 km/h 3.2 km/h 71% 0.0 mm 0 W/m2
02:45 14.3 °C 9.1 °C 1024.4 hPa ESE 1.4 km/h 4.8 km/h 71% 0.0 mm 0 W/m2
02:50 14.3 °C 9.1 °C 1024.4 hPa Calm   3.2 km/h 71% 0.0 mm 0 W/m2
02:55 14.3 °C 9.1 °C 1024.4 hPa SE 3.2 km/h 3.2 km/h 71% 0.0 mm 0 W/m2
03:00 14.2 °C 9 °C 1024.4 hPa Calm   1.6 km/h 71% 0.0 mm 0 W/m2
03:05 14.2 °C 9 °C 1024.4 hPa SE 1.4 km/h 3.2 km/h 71% 0.0 mm 0 W/m2
03:10 14.1 °C 9.1 °C 1024.4 hPa SE 1.4 km/h 3.2 km/h 72% 0.0 mm 0 W/m2
03:15 13.9 °C 8.9 °C 1024.4 hPa East 1.4 km/h 1.6 km/h 72% 0.0 mm 0 W/m2
03:21 13.9 °C 8.9 °C 1024.4 hPa Calm   1.6 km/h 72% 0.0 mm 0 W/m2
03:26 13.9 °C 9.1 °C 1024.4 hPa SSW 3.2 km/h 3.2 km/h 73% 0.0 mm 0 W/m2
03:31 13.8 °C 8.8 °C 1024.0 hPa Calm   3.2 km/h 72% 0.0 mm 0 W/m2
03:36 13.8 °C 8.8 °C 1024.0 hPa NE 1.4 km/h 4.8 km/h 72% 0.0 mm 0 W/m2
03:41 13.7 °C 8.9 °C 1024.0 hPa ENE 1.4 km/h 6.4 km/h 73% 0.0 mm 0 W/m2
03:46 13.7 °C 8.7 °C 1024.0 hPa Calm   3.2 km/h 72% 0.0 mm 0 W/m2
03:51 13.7 °C 8.7 °C 1024.0 hPa SW 1.4 km/h 4.8 km/h 72% 0.0 mm 0 W/m2
03:56 13.7 °C 8.7 °C 1024.0 hPa Calm   1.6 km/h 72% 0.0 mm 0 W/m2
04:01 13.6 °C 8.6 °C 1024.0 hPa Calm   1.6 km/h 72% 0.0 mm 0 W/m2
04:06 13.6 °C 8.6 °C 1024.0 hPa North 3.2 km/h 6.4 km/h 72% 0.0 mm 0 W/m2
04:11 13.6 °C 8.9 °C 1024.0 hPa North 1.4 km/h 1.6 km/h 73% 0.0 mm 0 W/m2
04:16 13.5 °C 8.8 °C 1024.0 hPa North 3.2 km/h 3.2 km/h 73% 0.0 mm 0 W/m2
04:21 13.3 °C 8.8 °C 1024.0 hPa West 1.4 km/h 1.6 km/h 74% 0.0 mm 0 W/m2
04:26 13.2 °C 8.7 °C 1024.0 hPa West 3.2 km/h 3.2 km/h 74% 0.0 mm 0 W/m2
04:31 12.9 °C 8.6 °C 1024.0 hPa ENE 3.2 km/h 3.2 km/h 75% 0.0 mm 0 W/m2
04:36 12.8 °C 8.7 °C 1024.0 hPa Calm   1.6 km/h 76% 0.0 mm 0 W/m2
04:41 12.8 °C 8.7 °C 1024.0 hPa ESE 1.4 km/h 1.6 km/h 76% 0.0 mm 0 W/m2
04:46 12.8 °C 8.7 °C 1024.0 hPa Calm   1.6 km/h 76% 0.0 mm 0 W/m2
04:51 12.9 °C 8.6 °C 1024.0 hPa Calm   1.6 km/h 75% 0.0 mm 0 W/m2
04:56 12.9 °C 8.6 °C 1024.4 hPa Calm     75% 0.0 mm 0 W/m2
05:01 12.8 °C 8.7 °C 1024.0 hPa Calm   1.6 km/h 76% 0.0 mm 0 W/m2
05:06 12.8 °C 8.5 °C 1024.0 hPa NNE 1.4 km/h 4.8 km/h 75% 0.0 mm 0 W/m2
05:11 12.8 °C 8.5 °C 1024.0 hPa Calm     75% 0.0 mm 0 W/m2
05:16 12.7 °C 8.6 °C 1024.0 hPa Calm   4.8 km/h 76% 0.0 mm 0 W/m2
05:21 12.6 °C 8.5 °C 1024.0 hPa Calm   1.6 km/h 76% 0.0 mm 0 W/m2
05:26 12.4 °C 8.5 °C 1024.0 hPa Calm     77% 0.0 mm 0 W/m2
05:31 12.3 °C 8.4 °C 1024.4 hPa Calm   1.6 km/h 77% 0.0 mm 0 W/m2
05:36 12.2 °C 8.5 °C 1024.4 hPa WSW 3.2 km/h 3.2 km/h 78% 0.0 mm 0 W/m2
05:41 12.2 °C 8.5 °C 1024.4 hPa Calm   3.2 km/h 78% 0.0 mm 0 W/m2
05:46 12.3 °C 8.6 °C 1024.4 hPa Calm   1.6 km/h 78% 0.0 mm 5 W/m2
05:51 12.4 °C 8.7 °C 1024.4 hPa South 3.2 km/h 4.8 km/h 78% 0.0 mm 7 W/m2
05:56 12.5 °C 8.8 °C 1024.4 hPa Calm   4.8 km/h 78% 0.0 mm 9 W/m2
06:01 12.6 °C 8.9 °C 1024.7 hPa Calm     78% 0.0 mm 11 W/m2
06:06 12.5 °C 8.8 °C 1024.4 hPa Calm   1.6 km/h 78% 0.0 mm 12 W/m2
06:11 12.4 °C 8.9 °C 1024.7 hPa WNW 1.4 km/h 3.2 km/h 79% 0.0 mm 14 W/m2
06:16 12.5 °C 8.8 °C 1024.7 hPa Calm   1.6 km/h 78% 0.0 mm 16 W/m2
06:21 12.6 °C 8.9 °C 1024.7 hPa WNW 3.2 km/h 3.2 km/h 78% 0.0 mm 18 W/m2
06:26 12.6 °C 8.9 °C 1024.7 hPa Calm   3.2 km/h 78% 0.0 mm 19 W/m2
06:31 12.7 °C 9 °C 1024.7 hPa Calm     78% 0.0 mm 21 W/m2
06:36 12.7 °C 9 °C 1024.7 hPa Calm   3.2 km/h 78% 0.0 mm 23 W/m2
06:41 12.7 °C 9 °C 1024.7 hPa NE 3.2 km/h 4.8 km/h 78% 0.0 mm 25 W/m2
06:46 12.8 °C 8.9 °C 1024.7 hPa NNW 1.4 km/h 4.8 km/h 77% 0.0 mm 26 W/m2
06:51 12.9 °C 9 °C 1024.7 hPa WNW 4.7 km/h 4.8 km/h 77% 0.0 mm 26 W/m2
06:56 12.9 °C 9 °C 1024.7 hPa SW 1.4 km/h 3.2 km/h 77% 0.0 mm 28 W/m2
07:01 12.9 °C 9 °C 1025.1 hPa Calm   3.2 km/h 77% 0.0 mm 30 W/m2
07:06 13 °C 9.1 °C 1024.7 hPa NNW 1.4 km/h 6.4 km/h 77% 0.0 mm 30 W/m2
07:11 13.1 °C 9.2 °C 1024.7 hPa NNW 1.4 km/h 1.6 km/h 77% 0.0 mm 32 W/m2
07:16 13.1 °C 9.2 °C 1024.7 hPa Calm   6.4 km/h 77% 0.0 mm 32 W/m2
07:21 13.2 °C 9.1 °C 1025.1 hPa WNW 3.2 km/h 3.2 km/h 76% 0.0 mm 33 W/m2
07:26 13.2 °C 9.3 °C 1025.1 hPa WNW 1.4 km/h 4.8 km/h 77% 0.0 mm 35 W/m2
07:31 13.3 °C 9.2 °C 1025.1 hPa ENE 1.4 km/h 3.2 km/h 76% 0.0 mm 35 W/m2
07:36 13.4 °C 9.3 °C 1025.1 hPa West 4.7 km/h 4.8 km/h 76% 0.0 mm 35 W/m2
07:41 13.5 °C 9.4 °C 1025.1 hPa WNW 3.2 km/h 4.8 km/h 76% 0.0 mm 37 W/m2
07:46 13.6 °C 9.4 °C 1025.1 hPa WNW 3.2 km/h 3.2 km/h 76% 0.0 mm 40 W/m2
07:51 13.7 °C 9.5 °C 1025.1 hPa Calm   4.8 km/h 76% 0.0 mm 109 W/m2
07:56 13.8 °C 9.6 °C 1025.1 hPa ENE 3.2 km/h 4.8 km/h 76% 0.0 mm 237 W/m2
08:01 13.9 °C 9.5 °C 1025.1 hPa NNE 1.4 km/h 4.8 km/h 75% 0.0 mm 251 W/m2
08:06 14.2 °C 9.8 °C 1025.1 hPa ESE 1.4 km/h 3.2 km/h 75% 0.0 mm 265 W/m2
08:11 14.6 °C 10 °C 1025.1 hPa NNE 3.2 km/h 6.4 km/h 74% 0.0 mm 279 W/m2
08:16 14.8 °C 10 °C 1025.1 hPa Calm   1.6 km/h 73% 0.0 mm 294 W/m2
08:21 15.1 °C 10.1 °C 1025.1 hPa North 1.4 km/h 6.4 km/h 72% 0.0 mm 279 W/m2
08:26 15.4 °C 10.2 °C 1025.1 hPa ENE 1.4 km/h 4.8 km/h 71% 0.0 mm 165 W/m2
08:31 15.7 °C 10.5 °C 1025.1 hPa NNE 1.4 km/h 1.6 km/h 71% 0.0 mm 62 W/m2
08:36 15.9 °C 10.4 °C 1025.1 hPa NNW 1.4 km/h 3.2 km/h 70% 0.0 mm 49 W/m2
08:41 16 °C 10.3 °C 1025.1 hPa Calm   1.6 km/h 69% 0.0 mm 49 W/m2
08:46 16.2 °C 10.7 °C 1025.1 hPa Calm   4.8 km/h 70% 0.0 mm 49 W/m2
08:51 16.3 °C 10.6 °C 1025.1 hPa NW 4.7 km/h 4.8 km/h 69% 0.0 mm 49 W/m2
08:56 16.4 °C 10.7 °C 1025.1 hPa North 3.2 km/h 4.8 km/h 69% 0.0 mm 49 W/m2
Juneau County Weather
Compliments of Weather Underground - 2 mb